Powrót do katalogu

T-MICROSAT-1

AktywnyNaukaSSO
NORAD 66766·PAYLOAD·🇹🇼 Taiwan

Wystrzelony Nov 28, 2025 z Vandenberg Space Force Base

Loading…

Następne Przeloty (najbliższe 24 godziny)

TLE

ŚwieżeSource: Space-Track

Epoka: Sep 13, 2026, 22:36 UTC

1 66766U 25276DE  26256.94225987  .00004948  00000-0  22216-3 0  9991
2 66766  97.4088 329.2967 0001265 115.0293 245.1075 15.21624346 43939

Śledź T-MICROSAT-1 w czasie rzeczywistym z AllMySat

Download on the App Store